Preview of NWS' New Version of Forecast
This preview is not operational and should not be used for support decisions.

Regional Weather Roundup (RWR)

Issued by National Weather Service (NWS)

                            
000
ASUS46 KSEW 230110
RWRWA 

WASHINGTON REGIONAL WEATHER ROUNDUP
NATIONAL WEATHER SERVICE SEATTLE WA
500 PM PST FRI FEB 22 2019

NOTE:"FAIR" INDICATES FEW OR NO CLOUDS BELOW 12,000 FEET WITH NO 
SIGNIFICANT WEATHER AND/OR OBSTRUCTIONS TO VISIBILITY.

WAZ507-509-555>559-230200-
SEATTLE, TACOMA, EVERETT, AND VICINITY
  
CITY           SKY/WX    TMP DP  RH WIND       PRES   REMARKS
EVERETT        MOCLDY    38  35  89 S9        29.92R                  
BOEING FIELD   CLOUDY    41  35  79 S7        29.95R                  
RENTON         CLOUDY    41  35  79 S6        29.95R                  
SEATAC AIRPORT CLOUDY    40  35  83 SW10      29.93R                  
JBLM-MCCHORD   MOCLDY    39  39 100 SW8       29.94S                  
PUYALLUP       CLOUDY    39  37  93 S8        29.94R                  
BREMERTON      CLOUDY    37  36  96 VRB3      29.92R                  
JBLM-FT LEWIS  PTCLDY    38  38 100 S15       29.93R                  
TACOMA NARROWS MOCLDY    38  35  89 S10       29.93S                  
$$
 
WAZ001-503-506-510-514-515-230200-
NORTH INTERIOR
  
CITY           SKY/WX    TMP DP  RH WIND       PRES   REMARKS
BELLINGHAM     CLEAR     39  34  82 S6        29.89S                  
FRIDAY HARBOR  MOCLDY    42  34  73 N6        29.90R                  
EASTSOUND      CLOUDY    41  36  81 NW5       29.89S                  
PORT ANGELES   PTCLDY    43  31  62 W12       29.91R                  
EDIZ HOOK      MOCLDY    45  33  63 W15       29.91R                  
PORT TOWNSEND  MOCLDY    39  36  87 SE5       29.92R                  
NAS WHIDBEY    LGT RAIN  46  35  65 W15G30    29.94R                  
ARLINGTON      LGT RAIN  38  35  89 S12       29.93R                  
BURLINGTON     CLOUDY    37  37 100 S9        29.91R                  
$$
 
WAZ020-022-039-040-504-511-512-230200-
SOUTHWEST INTERIOR
  
CITY           SKY/WX    TMP DP  RH WIND       PRES   REMARKS
SHELTON        PTCLDY    43  33  68 SW10      29.89S                  
OLYMPIA        MOCLDY    36  34  92 SW13      29.95S                  
CHEHALIS       FAIR      37  36  93 S7G14     29.98S                  
KELSO          LGT RAIN  37  35  92 SE6       30.03S                  
VANCOUVER      LGT RAIN  41  36  82 SW3       30.03R                  
SCAPPOOSE, OR  LGT RAIN  42  38  85 CALM      30.02S                  
PORTLAND, OR   RAIN      41  35  79 SW10      30.04R                  
$$
 
WAZ021-516-517-230200-
WASHINGTON COAST
  
CITY           SKY/WX    TMP DP  RH WIND       PRES   REMARKS
FORKS          MOCLDY    43  36  76 W10       29.94S                  
HOQUIAM        MOCLDY    45  38  76 W7        29.96R                  
ASTORIA, OR    CLOUDY    43  40  89 W5        29.99S                  
$$
 
WAZ019-023-024-040-567>569-230200-
CASCADE MOUNTAINS AND COLUMBIA GORGE
  
CITY           SKY/WX    TMP DP  RH WIND       PRES   REMARKS
STAMPEDE PASS  MIX PCPN  27  22  81 W8G20     29.77R                  
TROUTDALE, OR  LGT RAIN  42  34  73 SW14G26   30.03R                  
HOOD RIVER, OR LGT RAIN  36  32  87 NW5       29.96S                  
THE DALLES, OR CLOUDY    35  27  72 NW5       29.96F                  
$$

WAZ026-027-041>044-520-521-230200-
EAST SLOPES
  
CITY           SKY/WX    TMP DP  RH WIND       PRES   REMARKS
OMAK           LGT SNOW  27  24  89 SW9       29.90S FOG              
WENATCHEE      LGT SNOW  24  21  88 CALM      29.89F FOG              
ELLENSBURG     CLOUDY    38  23  55 N3        29.86R                  
YAKIMA         MOCLDY    29  20  69 W5        29.89F                  
SUNNYSIDE ARPT CLOUDY    37  29  73 SE6       29.91                   
YAKIMA TC      FAIR      29  21  71 NW5       29.87R                  
$$

WAZ028-034-035-230200-
COLUMBIA BASIN
  
CITY           SKY/WX    TMP DP  RH WIND       PRES   REMARKS
EPHRATA        CLOUDY    31  23  72 CALM      29.87F                  
MOSES LAKE     CLOUDY    33  23  66 S9        29.89F                  
PASCO          CLOUDY    38  25  59 S10       29.95F                  
RICHLAND ARPT  CLOUDY    40  27  59 SW14G20   29.94S                  
HERMISTON, OR  CLOUDY    39  27  62 S3        29.93F                  
$$

WAZ036>038-230200-
NORTHEAST WASHINGTON
  
CITY           SKY/WX    TMP DP  RH WIND       PRES   REMARKS
SPOKANE GEIGER LGT SNOW  26  18  71 S7        29.88F                  
SPOKANE FELTS  CLOUDY    30  19  63 SE5       29.91F                  
FAIRCHILD AFB  LGT SNOW  25  21  86 S9        29.86S                  
COEURDALENE,ID FLURRIES  27  22  81 S5        29.88F                  
DEER PARK      LGT SNOW  24  21  88 SE3       29.89F FOG              
$$

WAZ029>033-230200-
SOUTHEAST WASHINGTON
  
CITY           SKY/WX    TMP DP  RH WIND       PRES   REMARKS
PULLMAN        CLOUDY    26  19  74 E9        29.91F                  
LEWISTON, ID   CLOUDY    27  18  69 CALM      29.97F                  
WALLA WALLA    CLOUDY    39  23  52 S12       29.94F                  
PENDLETON, OR  CLOUDY    38  24  57 S12       29.93F                  
$$